User: anonymous   Login
Location: Brown Observing Site
(43.4354°N, 116.3366°W)
Time: 18:41:39
(UTC-06:00)
Language:

Envisat - Orbit

View from above orbital plane
View from above orbital plane
View from above satellite
View from above satellite

Ground track
Ground track

The orbit data is extracted from the following two-line orbital elements,

1 27386U 02009A   19110.67128442  .00000009  00000-0  16500-4 0  9998
2 27386  98.1544 134.7005 0001406  90.2028  21.6182 14.37946432897716
Epoch (UTC): 20 April 2019 16:06:38
Eccentricity: 0.0001406
inclination: 98.1544°
perigee height: 764 km
apogee height: 766 km
right ascension of ascending node: 134.7005°
argument of perigee: 90.2028°
revolutions per day: 14.37946432
mean anomaly at epoch: 21.6182°
orbit number at epoch: 89771

The dashed part of the orbit path shows where the satellite is in the earth's shadow,  

DLR